Watford City, ND

10:49 PM CDT on September 20, 2017 (GMT -0500)
Watford City

Weather History for KS25 - December, 2012

Change the Weather History Date:

Sunday, December 16, 2012

  Actual Average (KISN) Record (KISN)
Temperature  
Mean Temperature 11 °F -  
Max Temperature 17 °F 24 °F 54 °F (1962)
Min Temperature 5 °F 5 °F -25 °F (2008)
Degree Days  
Heating Degree Days 54    
Moisture  
Dew Point 12 °F    
Average Humidity 93    
Maximum Humidity 100    
Minimum Humidity 85    
Precipitation  
Precipitation 0.00 in - - ()
Sea Level Pressure  
Sea Level Pressure 29.70 in    
Wind  
Wind Speed 5 mph (SE)    
Max Wind Speed 10 mph    
Max Gust Speed -    
Visibility 6 miles    
Events Fog , Snow    
Averages and records for this station are not official NWS values.
T = Trace of Precipitation, MM = Missing Value Source: NWS Daily Summary

Daily Weather History Graph

Daily Weather History Graph

Search for Another Location

Airport or City:

Trip Planner

Search our weather history database for the weather conditions in past years. The results will help you decide how hot, cold, wet, or windy it might be!

Date:

Astronomy

Dec. 16, 2012 Rise Set
Actual Time 8:36 AM CST 5:01 PM CST
Civil Twilight 8:00 AM CST 5:37 PM CST
Nautical Twilight 7:20 AM CST 6:17 PM CST
Astronomical Twilight 6:43 AM CST 6:54 PM CST
Moon 10:58 AM CST (12/16) 9:33 PM CST (12/16)
Length of Visible Light 9h 37m
Length of Day
8h 24m
Waxing Crescent, 16% of the Moon is Illuminated
Dec 16
Waxing Crescent
Dec 19
First Quarter
Dec 28
Full
Jan 4
Last Quarter
Jan 11
New

Hourly Weather History & Observations

Time (CST) Temp. Windchill Dew Point Humidity Pressure Visibility Wind Dir Wind Speed Gust Speed Precip Events Conditions
12:15 AM 17.6 °F 12.3 °F 17.6 °F 100% 29.76 in 0.5 mi SE 3.5 mph - N/A Fog Light Freezing Fog
12:35 AM 17.6 °F 8.2 °F 17.6 °F 100% 29.75 in 0.5 mi SE 6.9 mph - N/A Fog Light Freezing Fog
12:55 AM 17.6 °F 12.3 °F 15.8 °F 93% 29.75 in 0.5 mi SSE 3.5 mph - N/A Fog Light Freezing Fog
1:15 AM 17.6 °F 10.7 °F 15.8 °F 93% 29.74 in 0.2 mi SE 4.6 mph - N/A Fog Light Freezing Fog
1:35 AM 17.6 °F 10.7 °F 15.8 °F 93% 29.74 in 0.2 mi SSE 4.6 mph - N/A Fog Light Freezing Fog
1:55 AM 15.8 °F 8.6 °F 15.8 °F 100% 29.73 in 0.2 mi SSE 4.6 mph - N/A Fog Light Freezing Fog
2:15 AM 15.8 °F 6.1 °F 14.0 °F 93% 29.73 in 0.2 mi South 6.9 mph - N/A Fog Light Freezing Fog
2:35 AM 14.0 °F - 14.0 °F 100% 29.73 in 0.2 mi Calm Calm - N/A Fog Light Freezing Fog
2:55 AM 14.0 °F 6.5 °F 12.2 °F 93% 29.73 in 0.5 mi South 4.6 mph - N/A Fog Light Freezing Fog
3:15 AM 12.2 °F 6.1 °F 10.4 °F 92% 29.74 in 0.8 mi South 3.5 mph - N/A   Overcast
3:35 AM 10.4 °F 4.0 °F 8.6 °F 92% 29.73 in 0.5 mi South 3.5 mph - N/A Fog Light Freezing Fog
3:55 AM 10.4 °F 4.0 °F 6.8 °F 85% 29.73 in 0.8 mi SE 3.5 mph - N/A   Overcast
4:15 AM 10.4 °F 4.0 °F 8.6 °F 92% 29.73 in 0.5 mi South 3.5 mph - N/A Fog Light Freezing Fog
4:35 AM 10.4 °F 2.2 °F 6.8 °F 85% 29.73 in 1.2 mi SSE 4.6 mph - N/A   Overcast
4:55 AM 10.4 °F 4.0 °F 6.8 °F 85% 29.72 in 0.5 mi SE 3.5 mph - N/A Fog Light Freezing Fog
5:15 AM 10.4 °F 2.2 °F 6.8 °F 85% 29.72 in 0.2 mi SE 4.6 mph - N/A Fog Light Freezing Fog
5:35 AM 10.4 °F 2.2 °F 6.8 °F 85% 29.72 in 0.2 mi SE 4.6 mph - N/A Fog Light Freezing Fog
5:55 AM 10.4 °F 0.8 °F 6.8 °F 85% 29.72 in 0.2 mi SE 5.8 mph - N/A Fog Light Freezing Fog
6:15 AM 10.4 °F 0.8 °F 6.8 °F 85% 29.72 in 0.2 mi ESE 5.8 mph - N/A Fog Light Freezing Fog
6:35 AM 8.6 °F 0.1 °F 6.8 °F 92% 29.72 in 0.2 mi SE 4.6 mph - N/A Fog Light Freezing Fog
6:55 AM 10.4 °F -0.4 °F 6.8 °F 85% 29.72 in 0.2 mi ESE 6.9 mph - N/A Fog Light Freezing Fog
7:15 AM 8.6 °F -1.3 °F 6.8 °F 92% 29.72 in 0.5 mi SE 5.8 mph - N/A Fog Light Freezing Fog
7:35 AM 8.6 °F -1.3 °F 6.8 °F 92% 29.71 in 1.0 mi ESE 5.8 mph - N/A   Overcast
7:55 AM 8.6 °F -1.3 °F 6.8 °F 92% 29.71 in 3.0 mi ESE 5.8 mph - N/A   Overcast
8:15 AM 6.8 °F -0.1 °F 3.2 °F 85% 29.71 in 10.0 mi ESE 3.5 mph - N/A   Mostly Cloudy
8:35 AM 5.0 °F -2.1 °F 1.4 °F 85% 29.71 in 10.0 mi ESE 3.5 mph - N/A   Clear
8:55 AM 5.0 °F - 1.4 °F 85% 29.71 in 10.0 mi Calm Calm - N/A   Clear
9:15 AM 5.0 °F - 3.2 °F 92% 29.71 in 10.0 mi Calm Calm - N/A   Clear
9:35 AM 5.0 °F -4.1 °F 1.4 °F 85% 29.71 in 10.0 mi SSE 4.6 mph - N/A   Partly Cloudy
9:55 AM 6.8 °F - 3.2 °F 85% 29.72 in 10.0 mi Calm Calm - N/A   Scattered Clouds
10:15 AM 6.8 °F -0.1 °F 5.0 °F 92% 29.72 in 10.0 mi East 3.5 mph - N/A   Partly Cloudy
10:35 AM 8.6 °F - 6.8 °F 92% 29.72 in 10.0 mi Calm Calm - N/A   Clear
10:55 AM 8.6 °F 0.1 °F 6.8 °F 92% 29.72 in 10.0 mi ESE 4.6 mph - N/A   Partly Cloudy
11:15 AM 10.4 °F -0.4 °F 8.6 °F 92% 29.72 in 10.0 mi ESE 6.9 mph - N/A   Scattered Clouds
11:35 AM 8.6 °F -4.7 °F 6.8 °F 92% 29.71 in 10.0 mi ESE 9.2 mph - N/A   Scattered Clouds
11:55 AM 10.4 °F -1.5 °F 8.6 °F 92% 29.70 in 10.0 mi ESE 8.1 mph - N/A   Mostly Cloudy
12:15 PM 12.2 °F 0.7 °F 10.4 °F 92% 29.69 in 10.0 mi ESE 8.1 mph - N/A Snow Light Snow
12:35 PM 14.0 °F 1.2 °F 10.4 °F 86% 29.68 in 10.0 mi ESE 10.4 mph - N/A   Overcast
12:55 PM 14.0 °F 2.0 °F 10.4 °F 86% 29.68 in 10.0 mi ESE 9.2 mph - N/A   Overcast
1:15 PM 14.0 °F 2.9 °F 12.2 °F 93% 29.68 in 10.0 mi ESE 8.1 mph - N/A   Overcast
1:35 PM 15.8 °F 3.4 °F 14.0 °F 93% 29.67 in 10.0 mi ESE 10.4 mph - N/A Snow Light Snow
1:55 PM 15.8 °F 4.2 °F 14.0 °F 93% 29.67 in 6.0 mi ESE 9.2 mph - N/A Snow Light Snow
2:15 PM 15.8 °F 4.2 °F 15.8 °F 100% 29.67 in 5.0 mi ESE 9.2 mph - N/A Snow Light Snow
2:35 PM 17.6 °F 6.4 °F 15.8 °F 93% 29.67 in 5.0 mi ESE 9.2 mph - N/A Snow Light Snow
2:55 PM 17.6 °F 6.4 °F 15.8 °F 93% 29.67 in 6.0 mi ESE 9.2 mph - N/A Snow Light Snow
3:15 PM 17.6 °F 7.3 °F 15.8 °F 93% 29.66 in 10.0 mi ESE 8.1 mph - N/A   Overcast
3:35 PM 17.6 °F 7.3 °F 17.6 °F 100% 29.66 in 8.0 mi ESE 8.1 mph - N/A Snow Light Snow
3:55 PM 17.6 °F 5.7 °F 17.6 °F 100% 29.67 in 10.0 mi SE 10.4 mph - N/A Snow Light Snow
4:15 PM 17.6 °F 6.4 °F 17.6 °F 100% 29.67 in 10.0 mi ESE 9.2 mph - N/A   Overcast
4:35 PM 17.6 °F 8.2 °F 17.6 °F 100% 29.67 in 10.0 mi ESE 6.9 mph - N/A   Mostly Cloudy
4:55 PM 17.6 °F 10.7 °F 17.6 °F 100% 29.67 in 10.0 mi ESE 4.6 mph - N/A   Partly Cloudy
5:15 PM 17.6 °F 8.2 °F 15.8 °F 93% 29.66 in 10.0 mi ESE 6.9 mph - N/A   Mostly Cloudy
5:35 PM 15.8 °F 8.6 °F 15.8 °F 100% 29.67 in 10.0 mi SE 4.6 mph - N/A   Mostly Cloudy
5:55 PM 17.6 °F 6.4 °F 15.8 °F 93% 29.67 in 10.0 mi ESE 9.2 mph - N/A   Overcast
6:15 PM 17.6 °F 5.7 °F 15.8 °F 93% 29.67 in 10.0 mi ESE 10.4 mph - N/A   Overcast
6:35 PM 17.6 °F 8.2 °F 15.8 °F 93% 29.67 in 10.0 mi SE 6.9 mph - N/A   Overcast
6:55 PM 17.6 °F 7.3 °F 17.6 °F 100% 29.67 in 10.0 mi SE 8.1 mph - N/A   Overcast
7:15 PM 17.6 °F 8.2 °F 17.6 °F 100% 29.67 in 10.0 mi ESE 6.9 mph - N/A   Overcast
7:35 PM 17.6 °F 10.7 °F 17.6 °F 100% 29.68 in 10.0 mi ESE 4.6 mph - N/A   Overcast
7:55 PM 17.6 °F 8.2 °F 17.6 °F 100% 29.67 in 10.0 mi ESE 6.9 mph - N/A   Overcast
8:15 PM 17.6 °F 8.2 °F 17.6 °F 100% 29.67 in 10.0 mi ESE 6.9 mph - N/A   Overcast
8:35 PM 17.6 °F 8.2 °F 17.6 °F 100% 29.67 in 10.0 mi ESE 6.9 mph - N/A   Overcast
8:55 PM 17.6 °F 7.3 °F 17.6 °F 100% 29.67 in 10.0 mi SE 8.1 mph - N/A   Overcast
9:15 PM 17.6 °F 9.3 °F 15.8 °F 93% 29.67 in 9.0 mi ESE 5.8 mph - N/A   Mostly Cloudy
9:35 PM 14.0 °F 3.9 °F 12.2 °F 93% 29.66 in 8.0 mi ESE 6.9 mph - N/A   Clear
9:55 PM 14.0 °F 2.9 °F 12.2 °F 93% 29.66 in 8.0 mi ESE 8.1 mph - N/A   Clear
10:15 PM 14.0 °F 2.9 °F 12.2 °F 93% 29.66 in 7.0 mi ESE 8.1 mph - N/A   Partly Cloudy
10:35 PM 14.0 °F 2.9 °F 10.4 °F 86% 29.65 in 7.0 mi ESE 8.1 mph - N/A   Clear
10:55 PM 12.2 °F 4.3 °F 10.4 °F 92% 29.65 in 7.0 mi SE 4.6 mph - N/A   Clear
11:15 PM 14.0 °F 2.9 °F 12.2 °F 93% 29.64 in 7.0 mi ESE 8.1 mph - N/A   Clear
11:55 PM 15.8 °F 10.2 °F 14.0 °F 93% 29.65 in 7.0 mi SE 3.5 mph - N/A   Mostly Cloudy